Wind_Speed
30 31 31 32 32 34 35 36 35 33 30 29 28 28 28 29 29 29 29 28 27 26 26 26 25 24 24 24 24 24 23 23 23 23 22 21 20 20 19 17 17 16 15 14 13 12 13 13 12 11 11 10 10 10 10 9 8 6 5 4 4 3 2
31 31 32 32 32 32 34 37 37 35 33 30 29 28 28 28 29 30 30 28 27 27 27 27 26 24 23 23 24 24 24 23 23 24 24 22 22 21 20 19 18 16 15 14 14 15 15 14 13 13 12 11 11 10 10 10 9 8 6 6 5 3 3
27 28 30 31 31 31 32 36 38 37 35 32 30 29 29 28 28 29 29 29 28 27 28 28 27 25 23 23 24 24 24 24 23 24 24 24 23 22 21 20 19 18 17 16 16 16 17 16 15 14 14 12 12 11 10 10 10 10 9 8 6 5 5
26 25 25 27 30 31 32 34 36 36 34 32 29 29 28 27 26 26 28 28 29 28 28 29 28 26 25 24 24 24 24 24 24 23 23 23 23 23 23 21 20 20 19 18 17 18 18 17 16 16 15 14 13 13 12 11 11 11 11 10 9 8 7
28 27 26 28 30 32 33 33 34 34 33 31 29 28 28 27 26 26 26 27 29 29 28 28 28 28 27 26 25 24 23 23 24 24 23 23 23 25 25 23 22 22 21 19 19 19 19 18 17 17 16 15 15 14 13 13 13 13 13 12 11 10 9
28 28 28 28 28 30 32 32 32 32 32 30 29 27 27 28 27 26 26 27 28 29 30 29 29 29 28 27 26 25 25 24 24 24 24 24 24 25 26 25 24 23 23 22 21 20 20 19 18 18 17 17 16 15 14 14 14 14 14 13 13 13 11
26 25 24 25 26 28 30 31 31 30 31 31 30 29 29 28 27 26 26 26 28 30 31 31 31 30 29 29 27 27 26 26 25 24 24 25 25 26 26 25 25 24 24 24 24 23 22 20 19 19 19 19 18 17 16 15 15 15 15 15 14 14 14
25 26 25 25 26 26 27 29 30 29 30 32 32 32 30 28 27 27 26 26 27 30 32 32 32 31 31 30 29 28 27 27 26 26 25 25 26 26 26 26 25 25 25 26 25 25 24 23 21 21 21 20 20 19 17 16 16 16 16 16 16 16 16
25 30 32 32 30 30 31 31 31 30 29 31 32 31 30 29 28 27 26 26 27 29 31 32 32 32 32 31 31 30 29 28 28 28 27 27 26 26 26 26 26 26 26 26 26 27 26 25 24 24 23 22 22 21 20 18 17 17 18 17 17 17 17
26 31 35 35 33 34 37 38 38 37 34 32 32 32 30 28 27 27 26 26 27 28 30 31 32 32 33 33 32 32 31 30 30 30 30 29 27 26 26 27 27 27 27 26 27 28 28 27 27 26 25 25 24 23 23 21 20 19 19 18 18 18 18
27 31 34 34 33 33 36 39 41 41 40 38 35 34 32 30 28 28 28 27 26 26 27 29 31 33 34 34 34 34 34 32 31 31 31 30 29 27 27 27 28 29 28 28 28 28 28 28 28 28 28 27 26 25 25 24 23 21 20 20 19 19 19
24 28 30 31 31 32 33 37 39 41 41 40 39 38 36 34 32 30 29 28 26 26 26 28 29 31 34 35 35 35 35 34 33 33 32 31 30 29 28 28 28 29 29 29 29 29 28 29 29 29 29 27 27 26 26 26 25 24 23 22 21 21 21
15 21 25 28 29 29 32 35 38 40 40 40 40 40 39 38 37 36 34 32 30 29 28 28 28 29 32 35 37 37 36 36 35 34 33 32 32 31 30 30 30 30 30 30 30 30 30 30 29 29 28 28 27 27 26 27 27 26 25 24 23 22 22
7 14 20 24 26 27 29 33 37 38 39 39 40 40 41 40 39 39 38 36 35 34 33 31 30 30 30 33 36 37 37 37 36 35 35 34 33 33 32 32 31 31 31 30 31 31 31 30 30 29 29 28 28 27 27 27 28 28 27 26 25 24 24
4 9 15 19 22 24 27 31 35 37 38 39 39 40 41 41 41 41 41 40 39 39 38 37 36 34 32 31 33 36 37 37 37 37 36 36 36 35 34 34 33 33 32 32 32 32 32 31 31 31 31 30 29 28 28 28 28 28 28 27 27 26 25
13 6 9 15 19 22 26 28 31 35 37 38 38 39 39 39 40 41 42 42 42 42 41 39 39 39 37 34 31 31 33 35 37 38 37 37 37 35 35 34 35 35 34 34 34 33 33 33 32 32 32 31 31 30 29 29 29 28 28 28 28 28 27
16 14 6 9 15 18 23 27 30 32 35 36 37 38 38 38 39 39 41 41 41 42 42 39 35 35 36 36 34 31 30 32 35 38 39 39 38 37 36 36 35 36 36 36 36 35 34 34 34 34 33 32 32 31 30 29 28 28 28 29 29 29 29
7 12 13 6 7 13 17 22 26 30 32 35 36 37 37 38 37 38 39 40 39 41 43 41 35 31 32 35 37 35 33 32 33 35 37 38 39 38 38 38 37 37 37 37 37 36 35 35 35 34 34 33 33 32 31 29 28 27 28 28 29 30 30
5 6 11 12 6 6 12 15 18 24 28 31 34 37 37 37 37 37 38 39 39 40 40 37 35 32 30 30 33 34 33 33 33 32 32 33 36 37 37 38 38 38 37 37 37 37 37 36 36 35 34 34 33 32 31 29 28 27 27 28 28 29 30
11 9 6 8 10 5 5 9 11 15 20 25 28 32 35 37 37 37 36 37 38 37 34 31 30 31 29 28 26 27 31 34 33 30 28 29 32 35 36 37 37 37 37 37 37 38 37 37 36 35 35 34 33 32 31 30 28 28 27 27 27 28 29
19 17 14 7 5 7 4 3 6 7 11 15 15 19 27 32 35 35 34 34 36 34 31 28 27 29 30 27 23 22 27 32 33 29 27 27 29 31 33 34 35 36 37 37 38 38 37 36 36 35 35 34 34 33 32 30 29 28 28 28 27 27 29
25 25 22 16 9 3 3 1 3 4 6 8 7 10 20 25 29 32 33 34 34 32 29 27 26 27 28 26 22 20 23 29 32 31 30 29 29 30 31 31 32 33 34 35 36 37 37 36 35 35 34 34 34 33 32 30 29 29 28 28 27 27 28
22 27 27 25 20 13 7 3 2 1 3 5 4 6 13 20 24 27 29 31 32 30 27 26 26 26 26 25 24 22 22 25 30 31 32 33 33 32 32 30 29 30 31 33 35 36 36 36 34 34 33 33 33 32 31 28 27 28 28 28 28 28 29
18 22 26 29 29 24 18 14 9 6 4 3 4 3 7 14 19 20 20 23 25 25 25 26 26 26 26 25 23 23 24 26 29 30 32 35 35 34 32 31 30 29 30 31 33 34 35 36 35 34 33 32 31 30 29 28 26 26 27 27 28 29 30
18 18 21 27 31 31 29 24 19 15 12 7 4 4 4 8 13 17 19 20 21 22 24 26 27 28 28 26 25 25 26 28 29 31 34 36 35 34 33 32 31 30 31 31 31 32 33 35 36 35 32 31 30 29 29 27 26 26 26 27 29 30 31
20 19 19 21 26 31 34 31 26 24 21 15 10 7 7 7 9 15 19 21 22 23 24 25 28 29 29 28 28 28 28 29 31 32 34 35 34 33 33 33 33 32 32 32 31 31 32 34 35 35 33 31 30 29 28 27 26 25 25 26 28 30 31
22 21 21 21 22 28 35 35 31 29 27 23 16 11 9 10 10 12 16 21 24 26 26 26 28 30 30 29 30 31 32 31 32 33 33 34 35 34 34 34 35 34 34 33 32 32 33 34 35 35 34 33 32 30 29 27 26 25 24 25 27 29 31
25 23 23 22 22 25 32 37 36 34 32 29 24 18 13 11 11 12 14 19 25 27 28 28 29 30 31 31 31 33 34 33 33 33 33 34 36 36 35 34 35 35 35 34 33 33 34 35 36 36 36 35 33 32 30 28 27 25 25 25 26 28 30
28 27 26 25 25 25 29 34 38 39 37 33 30 26 20 15 13 13 14 18 23 23 24 29 30 30 31 32 31 32 33 34 35 34 34 33 35 36 34 33 33 35 36 36 35 34 35 36 36 37 37 36 35 33 31 29 28 27 26 26 27 28 29
29 30 29 29 28 27 28 32 36 39 40 38 34 32 27 22 18 16 15 18 21 20 21 26 31 31 32 32 31 31 33 35 35 34 32 32 32 34 34 32 31 33 35 37 37 36 36 36 37 37 37 37 35 33 31 30 29 28 28 28 28 28 29
29 29 30 31 30 29 29 30 33 37 41 42 39 36 33 29 25 21 19 19 21 21 21 25 29 31 32 32 32 32 33 34 35 34 31 31 32 34 34 33 32 31 32 35 38 39 39 38 38 38 38 38 37 34 32 31 30 29 29 29 29 29 29
30 29 28 30 32 31 30 30 32 34 37 41 42 40 37 36 33 30 25 23 23 23 23 25 28 30 31 32 33 33 34 35 35 34 33 33 33 34 36 36 35 33 33 34 36 39 40 40 40 40 39 39 38 36 34 32 31 30 30 30 30 30 30
33 30 28 28 30 32 32 31 32 33 34 37 40 42 42 41 40 37 33 28 26 25 25 26 28 30 31 32 33 34 34 35 35 34 33 34 35 35 38 40 39 38 36 36 37 38 39 40 41 41 40 40 40 39 37 36 34 32 31 31 31 31 30
34 33 30 27 28 31 33 32 32 33 33 33 36 41 44 45 45 43 40 36 32 29 28 27 28 30 31 32 33 33 33 35 35 34 33 34 35 36 39 43 43 41 39 39 39 39 38 39 40 41 41 41 40 40 40 40 37 33 32 32 33 32 31
35 34 32 28 27 29 32 33 32 32 33 33 33 37 42 45 46 47 47 44 40 36 33 30 29 30 31 32 32 32 33 34 36 36 34 34 35 36 40 43 44 42 40 40 40 39 38 38 38 40 40 40 40 40 42 42 39 36 35 37 36 33 32
37 36 33 30 28 29 31 32 32 32 33 33 33 35 38 41 45 49 50 49 45 42 39 35 33 31 31 31 32 32 32 33 35 36 36 35 34 36 38 41 42 41 40 40 40 39 38 37 37 37 38 39 40 41 42 42 40 38 39 39 37 34 33
41 39 36 33 31 29 29 31 32 32 33 33 34 34 35 37 41 47 51 52 50 46 43 40 37 35 33 32 32 33 33 33 34 35 36 35 35 35 36 37 38 38 37 37 38 37 36 35 35 35 36 38 40 41 42 43 42 40 40 40 39 37 36
43 42 39 37 34 31 30 30 31 31 32 33 34 35 35 35 36 41 46 51 52 50 47 44 41 39 37 34 33 34 34 34 34 35 35 35 36 36 36 36 36 34 33 33 34 35 34 33 32 33 34 36 37 38 39 40 39 39 39 39 39 40 39
Wind_Direction
240 237 234 231 227 226 227 228 229 230 229 226 221 216 213 210 206 207 209 209 209 210 212 214 214 215 217 216 213 212 213 213 214 214 210 208 212 216 218 219 220 221 222 220 216 216 222 226 225 220 215 211 206 199 190 182 179 177 176 179 183 190 207
241 239 238 235 231 228 228 229 230 231 231 230 226 222 217 211 207 207 208 210 210 211 213 215 216 216 217 218 216 214 212 213 214 215 213 210 211 215 218 219 220 221 221 219 217 218 221 224 227 226 221 218 215 209 199 191 187 185 188 193 191 194 219
239 240 240 240 238 233 230 230 231 232 233 232 229 225 221 215 210 208 208 210 211 212 214 216 218 218 217 218 219 216 214 213 213 215 214 212 212 215 218 220 221 221 220 216 215 219 222 223 227 230 228 225 222 218 211 202 196 192 196 201 200 203 221
242 242 243 244 243 239 235 233 233 233 232 232 230 228 225 221 216 212 209 210 212 214 215 216 217 218 218 219 220 219 217 214 214 215 215 214 214 216 218 218 219 223 224 221 217 219 223 224 226 230 233 232 229 225 219 213 207 201 200 203 204 207 217
250 247 245 243 242 240 238 237 236 234 232 232 231 230 229 227 224 219 213 210 212 215 217 218 219 220 220 219 220 221 221 218 216 216 215 215 216 218 219 216 216 220 224 226 224 222 223 225 227 232 236 237 236 233 227 221 217 212 208 207 207 208 214
253 249 247 244 242 240 239 240 240 237 234 232 232 232 232 231 228 224 219 214 212 214 216 218 220 221 222 220 219 220 221 221 219 217 216 215 215 218 221 219 216 217 220 225 228 229 228 228 229 232 237 240 240 240 235 229 225 222 217 214 213 212 214
255 252 248 243 240 239 239 241 242 240 237 235 235 235 235 233 232 229 224 218 214 213 215 217 218 220 222 222 221 220 220 221 220 218 217 216 216 217 219 222 220 218 219 222 226 230 232 232 232 234 237 240 242 243 242 239 234 231 226 221 219 218 217
249 249 248 244 241 239 239 240 241 242 240 237 235 235 235 235 234 231 226 220 216 214 215 216 218 219 221 222 223 222 221 222 222 221 219 217 217 216 217 220 222 221 221 222 224 228 232 234 235 236 238 241 244 246 246 245 242 239 234 228 224 223 222
237 242 245 247 245 242 239 239 241 242 242 239 237 236 236 235 234 232 227 221 217 216 215 216 218 220 221 222 223 222 221 222 223 224 223 220 217 216 216 218 221 223 223 222 223 226 230 233 235 237 239 241 243 247 248 247 245 245 241 236 231 229 228
228 234 238 241 242 241 238 236 236 238 240 241 240 237 236 236 235 234 230 225 221 218 217 217 218 219 221 222 222 223 222 221 222 224 226 224 219 215 215 216 219 222 223 223 222 224 227 230 233 236 238 239 240 243 247 247 246 245 245 242 239 236 235
222 229 233 235 236 237 236 233 232 233 236 239 240 240 239 239 238 237 234 230 225 221 220 219 218 219 221 222 222 222 222 221 220 222 225 226 223 219 215 215 217 220 221 222 223 224 226 228 231 234 236 238 238 240 243 246 247 245 244 244 243 241 240
220 225 228 231 232 231 232 232 231 230 233 236 238 240 241 242 242 242 240 236 231 228 225 222 220 220 221 223 223 223 222 222 221 220 222 224 224 222 219 217 217 218 220 221 222 224 226 228 230 233 234 236 237 238 240 243 246 246 245 244 244 243 242
219 220 223 228 230 229 229 229 229 230 231 233 235 237 239 241 243 245 245 243 239 236 233 229 227 224 223 223 225 224 223 223 223 222 222 223 223 223 222 221 220 220 220 221 223 223 225 227 230 233 235 236 236 237 238 240 243 246 246 245 243 244 243
209 213 218 225 228 229 228 227 229 230 232 233 234 235 237 239 241 243 245 246 245 244 241 238 234 231 226 224 224 227 227 225 225 225 224 225 224 224 224 223 223 222 222 222 224 224 225 227 229 232 235 236 236 237 237 239 241 243 245 245 244 244 244
104 196 208 216 221 225 226 226 228 230 232 234 235 235 237 239 240 241 242 244 245 246 245 243 243 241 236 231 227 227 229 229 228 228 227 227 227 226 225 225 225 225 224 224 225 225 226 227 228 231 233 236 237 237 237 238 239 242 244 245 245 245 245
64 103 189 202 207 215 221 224 227 230 233 235 236 236 237 238 240 241 243 243 244 244 244 244 246 246 244 240 234 229 229 232 233 232 231 230 230 229 228 228 228 227 226 226 226 226 226 227 228 230 232 234 236 237 238 237 237 239 242 245 246 246 246
57 59 93 184 196 204 214 221 225 229 232 234 237 239 238 239 241 242 244 245 246 245 244 243 245 248 248 245 240 235 231 231 232 233 234 233 232 232 231 231 231 231 229 228 228 228 228 228 229 230 232 234 235 237 238 237 236 237 239 243 246 248 248
33 42 56 89 184 197 204 216 223 228 232 234 235 238 239 239 241 244 246 247 247 246 246 243 240 240 245 249 251 248 242 237 234 233 234 236 236 236 236 234 234 234 233 232 231 230 230 229 230 231 232 234 236 237 238 236 235 235 237 239 242 246 249
285 352 42 57 70 187 198 206 216 224 230 234 237 239 239 239 241 244 248 249 248 247 248 250 248 242 240 247 257 259 252 247 244 238 234 238 239 239 240 239 238 237 237 236 235 233 233 232 232 231 232 234 236 237 238 236 234 234 235 236 239 243 248
252 278 323 28 51 79 188 202 207 217 223 229 235 236 237 240 242 243 246 249 250 250 250 254 256 252 244 241 249 256 252 249 248 242 234 234 239 241 242 242 241 241 241 240 239 237 236 235 234 234 233 234 236 237 238 237 235 234 235 236 237 240 245
256 256 266 293 26 60 67 185 198 203 212 225 235 229 227 236 241 241 243 247 249 250 250 250 249 249 248 244 244 248 247 243 241 238 234 233 236 239 242 244 244 243 242 243 243 242 240 238 237 237 236 236 237 237 238 237 236 235 234 235 236 238 242
267 260 257 261 270 316 33 100 176 167 182 210 240 233 224 230 236 238 239 242 244 245 245 245 244 245 247 245 241 239 238 238 236 234 234 234 233 234 239 244 247 245 243 244 245 245 244 242 240 239 239 238 238 239 239 237 236 235 234 234 234 236 239
273 269 263 258 261 269 280 275 237 170 165 182 203 235 228 225 229 233 233 233 237 239 237 235 238 244 245 244 247 245 234 229 229 228 230 233 233 233 238 243 245 244 242 243 245 246 247 246 245 244 242 241 241 241 241 239 237 236 233 232 232 234 237
270 272 270 266 265 265 268 272 271 279 289 229 186 211 236 228 229 233 231 230 233 235 234 231 233 241 242 241 247 247 230 220 222 224 226 231 232 233 238 242 243 242 240 241 244 247 248 248 248 247 245 244 243 244 245 243 240 238 234 231 231 232 235
272 269 270 274 272 266 264 268 270 271 281 281 237 212 224 227 229 231 231 230 230 231 233 233 235 240 241 236 236 236 227 221 223 224 225 228 231 234 238 241 241 239 237 238 241 245 248 249 249 248 246 245 245 245 245 245 243 240 236 231 230 231 233
278 274 268 271 274 268 263 265 267 265 268 275 272 245 222 217 222 226 227 227 227 229 233 235 237 239 238 231 227 228 229 229 228 227 225 226 231 236 239 240 240 238 235 235 238 244 248 249 249 248 246 245 244 244 244 245 244 242 239 234 231 231 232
279 282 275 269 268 265 263 264 268 269 267 268 270 260 235 221 220 224 227 226 226 227 230 233 235 235 233 228 223 225 231 235 235 234 230 227 231 237 239 239 240 238 235 235 237 242 247 249 249 248 247 246 244 243 243 243 244 243 241 238 235 234 233
278 282 282 277 269 262 260 263 267 271 271 268 268 268 259 239 226 226 232 230 226 225 227 230 231 232 232 230 227 227 233 238 240 241 239 233 233 237 239 238 239 239 237 235 236 240 244 247 248 249 249 248 246 244 242 242 242 242 242 240 238 237 237
277 277 280 282 278 268 262 261 264 268 271 269 266 266 266 258 244 240 244 238 228 226 229 230 230 232 234 234 233 233 235 240 241 241 240 238 238 241 242 240 240 240 239 236 236 238 242 245 247 249 250 249 247 245 243 242 241 240 240 240 240 239 240
277 276 276 280 282 277 268 263 261 263 268 270 266 262 263 266 260 252 251 242 231 231 237 234 231 232 234 235 237 236 237 242 244 242 240 240 242 246 249 247 244 242 241 238 236 237 240 243 245 247 249 249 248 247 244 243 242 240 240 240 240 241 241
275 276 274 275 279 279 275 269 263 260 264 269 268 262 260 266 267 260 254 246 239 238 239 236 233 232 234 236 239 239 240 244 247 247 247 247 246 248 252 253 251 248 244 240 238 238 240 242 243 245 247 249 249 248 246 244 243 241 240 240 240 240 241
270 272 271 271 274 276 276 273 269 264 263 266 267 264 262 263 266 265 260 252 248 244 239 235 234 233 235 238 240 242 244 246 247 250 252 252 251 248 249 252 256 257 254 248 243 241 242 243 243 244 246 248 249 249 248 246 244 241 240 239 239 239 239
266 267 268 267 269 272 274 273 272 269 266 265 264 265 265 264 263 264 264 260 256 251 244 238 235 232 234 237 240 242 245 247 250 251 250 251 253 251 248 250 255 260 261 257 250 245 244 245 245 245 246 248 249 250 249 248 246 243 241 240 238 238 239
264 264 263 262 263 266 269 271 271 270 268 266 262 263 265 265 262 262 264 265 263 258 251 245 240 235 233 235 238 240 242 245 249 251 250 249 252 252 251 252 255 260 261 260 256 251 246 245 245 246 247 248 249 250 250 249 247 245 244 243 243 242 241
261 261 260 258 258 260 263 266 268 267 267 266 262 259 261 262 261 262 265 266 266 263 258 252 247 241 236 236 238 239 239 242 246 250 251 250 250 249 250 252 256 259 261 260 258 254 251 248 246 245 246 248 249 250 250 251 249 247 246 247 247 245 244
258 258 257 256 254 254 257 261 263 264 264 263 262 258 257 257 258 261 263 264 265 265 262 258 254 248 242 240 241 240 238 240 243 247 250 251 251 250 249 251 254 258 260 259 257 254 253 252 248 244 243 245 247 249 251 253 253 251 250 249 248 246 245
257 256 255 255 254 252 253 255 258 259 259 260 260 258 257 255 254 256 259 261 263 264 263 261 260 257 249 245 244 243 242 241 243 246 249 250 252 253 252 253 255 257 258 258 255 253 253 252 249 245 244 244 246 248 250 251 253 253 253 251 249 247 246
257 256 255 253 253 253 253 252 254 255 256 257 257 257 257 256 253 254 256 258 259 261 261 262 264 262 256 251 249 247 245 244 245 247 250 251 252 253 255 256 258 259 259 256 253 251 250 250 248 247 245 244 245 247 248 250 253 256 258 256 253 250 247
Height
3148 3149 3150 3152 3153 3155 3157 3159 3161 3163 3166 3169 3171 3174 3177 3179 3182 3184 3186 3187 3190 3192 3194 3196 3198 3200 3202 3204 3206 3208 3209 3211 3213 3215 3217 3219 3221 3223 3224 3226 3227 3229 3230 3232 3233 3234 3235 3235 3236 3237 3237 3238 3239 3240 3241 3241 3242 3242 3242 3243 3243 3243 3244
3145 3147 3148 3149 3151 3153 3154 3157 3159 3162 3164 3167 3170 3172 3175 3177 3180 3182 3184 3186 3188 3191 3193 3195 3197 3199 3201 3203 3205 3206 3208 3210 3211 3213 3216 3218 3220 3222 3223 3225 3226 3228 3230 3231 3232 3233 3234 3234 3235 3236 3237 3238 3239 3240 3241 3241 3242 3242 3243 3243 3244 3244 3245
3143 3144 3146 3147 3148 3150 3153 3155 3157 3160 3162 3165 3168 3170 3173 3175 3178 3180 3183 3185 3187 3189 3191 3193 3195 3197 3200 3202 3204 3205 3207 3208 3210 3212 3214 3216 3219 3221 3222 3224 3225 3227 3228 3230 3231 3232 3233 3234 3235 3235 3236 3237 3238 3239 3240 3241 3242 3242 3243 3243 3244 3244 3245
3141 3142 3144 3146 3147 3149 3152 3154 3156 3158 3160 3163 3165 3168 3171 3174 3177 3179 3182 3184 3186 3188 3190 3191 3194 3196 3198 3200 3202 3204 3205 3207 3209 3210 3212 3215 3217 3219 3221 3223 3224 3226 3227 3228 3230 3231 3232 3233 3234 3235 3235 3236 3237 3239 3240 3241 3241 3242 3243 3243 3244 3244 3245
3138 3141 3143 3144 3146 3148 3150 3151 3154 3156 3158 3161 3163 3166 3169 3173 3175 3178 3180 3182 3184 3187 3189 3191 3193 3195 3197 3199 3201 3203 3204 3206 3208 3209 3211 3213 3215 3217 3219 3221 3223 3225 3226 3227 3229 3230 3231 3232 3233 3234 3235 3236 3237 3238 3239 3240 3241 3242 3242 3243 3244 3244 3245
3136 3139 3140 3142 3144 3145 3147 3150 3152 3154 3156 3159 3161 3164 3167 3170 3173 3175 3178 3180 3183 3185 3188 3190 3191 3193 3195 3197 3199 3201 3203 3205 3206 3208 3210 3211 3213 3215 3217 3219 3221 3223 3225 3226 3227 3229 3230 3231 3232 3233 3234 3235 3236 3237 3238 3240 3241 3241 3242 3243 3243 3244 3245
3134 3136 3138 3140 3142 3144 3146 3148 3150 3153 3155 3158 3160 3162 3165 3168 3170 3173 3176 3178 3180 3183 3185 3187 3189 3191 3193 3195 3197 3199 3201 3203 3205 3206 3208 3210 3211 3213 3215 3217 3219 3221 3223 3225 3226 3227 3228 3230 3231 3233 3234 3234 3235 3236 3238 3239 3240 3241 3242 3242 3243 3244 3245
3131 3134 3136 3138 3140 3142 3145 3147 3149 3151 3154 3156 3158 3160 3162 3165 3168 3170 3173 3176 3178 3180 3182 3185 3187 3189 3191 3193 3195 3197 3199 3201 3203 3204 3206 3207 3209 3211 3213 3215 3217 3219 3221 3222 3224 3226 3227 3229 3230 3231 3232 3233 3234 3236 3237 3238 3239 3240 3241 3242 3243 3243 3244
3127 3130 3133 3135 3138 3141 3143 3145 3148 3150 3152 3154 3156 3158 3160 3163 3165 3168 3171 3174 3176 3178 3180 3183 3185 3188 3189 3191 3193 3195 3197 3199 3201 3202 3203 3205 3206 3208 3210 3212 3214 3216 3218 3220 3222 3224 3225 3227 3229 3230 3231 3232 3233 3234 3235 3237 3238 3239 3240 3241 3242 3243 3244
3124 3126 3129 3132 3135 3137 3140 3143 3146 3149 3151 3153 3155 3156 3158 3160 3163 3166 3169 3171 3173 3176 3178 3181 3183 3185 3187 3189 3191 3193 3194 3196 3198 3200 3201 3202 3204 3206 3208 3210 3212 3213 3215 3217 3219 3221 3223 3225 3227 3228 3229 3230 3231 3233 3234 3235 3236 3238 3239 3240 3241 3242 3243
3122 3124 3126 3128 3131 3134 3137 3140 3143 3146 3149 3151 3153 3155 3157 3159 3162 3164 3167 3169 3171 3174 3176 3179 3181 3183 3184 3186 3188 3190 3191 3193 3195 3197 3198 3200 3202 3204 3206 3207 3209 3210 3212 3214 3216 3218 3220 3222 3224 3226 3227 3228 3230 3231 3232 3233 3234 3236 3237 3238 3240 3241 3242
3120 3122 3124 3126 3128 3131 3134 3137 3140 3143 3146 3148 3151 3154 3156 3158 3160 3162 3165 3167 3170 3172 3174 3176 3178 3180 3182 3184 3186 3187 3189 3191 3192 3194 3195 3197 3199 3201 3203 3205 3206 3207 3209 3210 3212 3214 3217 3219 3221 3223 3224 3226 3228 3229 3230 3231 3232 3234 3235 3237 3238 3239 3240
3121 3121 3123 3124 3126 3129 3131 3134 3137 3139 3142 3145 3148 3151 3153 3155 3158 3160 3162 3164 3167 3169 3171 3173 3176 3177 3179 3181 3183 3185 3187 3188 3190 3191 3193 3195 3197 3199 3200 3202 3204 3205 3206 3208 3209 3211 3213 3215 3218 3220 3222 3224 3225 3227 3228 3229 3230 3231 3233 3234 3236 3237 3238
3122 3122 3122 3123 3125 3127 3129 3131 3134 3136 3139 3142 3144 3147 3150 3152 3154 3156 3159 3161 3163 3165 3167 3170 3172 3175 3177 3179 3181 3183 3185 3187 3189 3190 3192 3193 3195 3196 3198 3199 3201 3202 3204 3206 3207 3208 3210 3212 3214 3217 3219 3220 3222 3224 3225 3226 3227 3228 3230 3232 3233 3235 3236
3124 3124 3123 3124 3125 3126 3128 3129 3132 3134 3137 3139 3142 3144 3146 3149 3151 3153 3155 3157 3159 3161 3163 3166 3168 3171 3174 3177 3179 3182 3184 3186 3188 3189 3190 3192 3193 3194 3196 3197 3198 3200 3201 3203 3204 3206 3208 3210 3211 3213 3215 3217 3219 3220 3222 3223 3224 3226 3228 3229 3231 3232 3234
3125 3125 3124 3124 3125 3125 3127 3128 3130 3132 3134 3136 3139 3141 3143 3145 3147 3150 3152 3153 3155 3157 3159 3162 3165 3168 3171 3174 3177 3181 3183 3185 3186 3188 3189 3190 3191 3192 3194 3195 3196 3197 3199 3200 3201 3203 3205 3207 3208 3210 3212 3214 3216 3217 3218 3220 3222 3224 3225 3227 3229 3230 3231
3125 3126 3125 3125 3125 3125 3126 3127 3129 3130 3132 3134 3136 3138 3140 3142 3144 3146 3149 3151 3153 3155 3156 3159 3163 3168 3171 3172 3173 3177 3180 3182 3184 3185 3187 3188 3189 3191 3192 3193 3195 3196 3197 3197 3199 3200 3202 3204 3205 3207 3209 3211 3212 3214 3216 3217 3219 3221 3223 3224 3226 3227 3228
3125 3127 3126 3125 3124 3124 3124 3126 3128 3129 3131 3132 3133 3135 3137 3139 3141 3143 3145 3148 3151 3151 3152 3155 3159 3164 3169 3171 3171 3173 3175 3177 3180 3182 3184 3186 3187 3189 3190 3191 3192 3193 3194 3195 3197 3198 3199 3200 3202 3204 3206 3207 3209 3211 3213 3215 3217 3218 3220 3222 3223 3224 3225
3125 3126 3126 3125 3124 3124 3124 3124 3126 3128 3129 3131 3132 3133 3134 3136 3138 3140 3142 3145 3147 3147 3149 3153 3157 3160 3163 3167 3170 3172 3172 3173 3174 3176 3180 3183 3185 3187 3188 3188 3189 3191 3192 3194 3195 3196 3196 3197 3199 3201 3202 3204 3206 3208 3210 3212 3214 3216 3217 3219 3220 3221 3222
3125 3125 3126 3125 3124 3124 3123 3123 3124 3126 3127 3129 3130 3130 3131 3133 3134 3137 3139 3142 3144 3146 3149 3153 3157 3159 3160 3161 3164 3168 3169 3170 3170 3172 3175 3178 3181 3183 3184 3185 3186 3188 3189 3191 3192 3193 3194 3195 3196 3198 3199 3201 3202 3205 3207 3209 3211 3213 3214 3216 3217 3219 3219
3124 3124 3125 3125 3124 3124 3124 3123 3123 3124 3125 3126 3127 3128 3129 3131 3132 3134 3136 3138 3141 3144 3147 3150 3153 3157 3158 3157 3158 3161 3164 3166 3168 3170 3172 3173 3175 3178 3180 3182 3184 3185 3186 3188 3189 3191 3192 3193 3194 3195 3196 3198 3199 3201 3203 3206 3208 3210 3211 3212 3214 3215 3216
3121 3122 3123 3124 3123 3124 3124 3124 3123 3123 3124 3125 3125 3126 3127 3129 3130 3132 3134 3135 3137 3140 3144 3146 3149 3153 3155 3155 3155 3155 3156 3160 3164 3167 3169 3170 3170 3172 3175 3178 3180 3182 3183 3184 3186 3188 3189 3190 3191 3192 3194 3195 3196 3198 3199 3202 3205 3206 3208 3209 3211 3212 3212
3119 3120 3121 3122 3122 3122 3123 3123 3124 3124 3123 3123 3124 3124 3125 3127 3128 3129 3129 3130 3133 3137 3140 3143 3147 3149 3150 3152 3152 3152 3152 3154 3158 3162 3165 3166 3167 3168 3170 3173 3175 3177 3179 3181 3182 3184 3186 3187 3189 3190 3191 3192 3193 3195 3196 3199 3201 3203 3204 3206 3207 3208 3208
3118 3119 3119 3120 3120 3120 3121 3122 3123 3123 3123 3123 3123 3123 3124 3125 3126 3127 3126 3127 3130 3134 3137 3140 3143 3145 3147 3148 3149 3150 3151 3151 3153 3156 3159 3161 3163 3165 3166 3168 3170 3173 3175 3177 3178 3180 3182 3184 3186 3187 3188 3189 3191 3192 3193 3195 3198 3199 3201 3202 3203 3204 3204
3115 3116 3117 3117 3117 3118 3119 3120 3121 3121 3122 3123 3123 3123 3123 3124 3124 3125 3125 3126 3129 3132 3134 3136 3139 3141 3143 3145 3146 3148 3149 3150 3151 3152 3154 3155 3158 3160 3162 3164 3166 3168 3170 3172 3174 3176 3178 3180 3181 3183 3185 3186 3187 3189 3190 3192 3194 3196 3197 3199 3200 3200 3200
3111 3112 3114 3115 3115 3116 3116 3117 3118 3120 3121 3122 3123 3122 3122 3122 3123 3123 3124 3124 3126 3129 3131 3133 3135 3138 3140 3142 3144 3145 3147 3148 3149 3150 3151 3152 3153 3155 3157 3160 3162 3164 3166 3168 3170 3172 3174 3176 3177 3179 3181 3182 3184 3185 3187 3188 3190 3192 3194 3195 3196 3196 3197
3108 3108 3110 3112 3114 3115 3115 3114 3115 3118 3119 3121 3121 3121 3120 3120 3121 3122 3122 3122 3124 3126 3128 3130 3132 3134 3136 3138 3140 3142 3144 3145 3146 3147 3148 3149 3150 3151 3153 3155 3158 3160 3163 3165 3167 3169 3171 3172 3174 3175 3177 3178 3180 3181 3183 3185 3187 3189 3190 3192 3192 3193 3193
3104 3105 3106 3108 3110 3113 3114 3113 3113 3114 3116 3118 3119 3119 3119 3118 3119 3120 3121 3121 3121 3123 3125 3127 3128 3130 3132 3134 3136 3138 3139 3141 3142 3143 3144 3145 3146 3147 3149 3152 3154 3157 3159 3161 3163 3165 3167 3169 3171 3172 3173 3175 3176 3178 3179 3181 3183 3185 3186 3188 3189 3189 3190
3100 3101 3102 3103 3105 3107 3110 3112 3111 3111 3112 3114 3115 3115 3116 3116 3116 3117 3119 3119 3119 3120 3122 3124 3125 3127 3129 3130 3132 3134 3135 3135 3136 3136 3138 3140 3143 3144 3146 3149 3151 3153 3156 3158 3159 3161 3163 3165 3167 3168 3170 3171 3173 3174 3176 3177 3179 3181 3182 3184 3185 3186 3186
3097 3097 3098 3099 3099 3101 3105 3108 3109 3109 3108 3109 3111 3112 3112 3113 3114 3115 3116 3117 3117 3118 3119 3121 3122 3123 3125 3127 3128 3130 3130 3130 3130 3129 3131 3135 3138 3140 3142 3145 3148 3150 3152 3154 3156 3158 3160 3162 3164 3165 3166 3168 3170 3171 3172 3174 3175 3177 3178 3180 3181 3182 3183
3094 3094 3095 3095 3095 3096 3099 3102 3105 3106 3106 3106 3106 3107 3109 3110 3110 3111 3113 3114 3115 3116 3116 3118 3118 3119 3121 3123 3124 3125 3126 3126 3126 3126 3128 3131 3134 3137 3139 3142 3144 3147 3149 3151 3153 3154 3156 3158 3160 3162 3163 3165 3166 3168 3169 3170 3171 3172 3174 3176 3177 3179 3180
3089 3090 3091 3091 3091 3091 3093 3096 3099 3102 3104 3104 3103 3103 3105 3106 3107 3108 3109 3110 3112 3113 3113 3114 3115 3116 3118 3119 3120 3121 3122 3123 3124 3125 3126 3128 3130 3132 3135 3137 3139 3142 3145 3148 3150 3151 3153 3155 3157 3158 3160 3161 3163 3164 3165 3166 3167 3168 3169 3171 3173 3174 3176
3084 3084 3085 3087 3087 3087 3087 3089 3092 3095 3099 3101 3102 3101 3101 3103 3104 3105 3105 3106 3108 3109 3110 3111 3112 3113 3114 3116 3117 3118 3119 3120 3121 3123 3125 3126 3127 3129 3130 3132 3135 3137 3140 3143 3146 3148 3150 3151 3153 3154 3156 3157 3159 3160 3161 3162 3162 3164 3165 3167 3168 3170 3172
3078 3078 3080 3081 3082 3083 3083 3084 3086 3089 3092 3096 3099 3099 3099 3100 3101 3102 3102 3103 3104 3105 3105 3107 3108 3109 3111 3112 3113 3115 3116 3117 3118 3120 3122 3123 3125 3126 3127 3129 3131 3133 3136 3139 3142 3144 3146 3147 3149 3150 3152 3153 3155 3156 3157 3157 3158 3160 3161 3162 3164 3166 3169
3072 3073 3074 3076 3077 3078 3078 3079 3081 3083 3086 3090 3094 3097 3098 3098 3098 3098 3098 3099 3100 3101 3101 3103 3104 3105 3107 3108 3109 3111 3113 3114 3115 3116 3118 3120 3122 3124 3125 3126 3127 3129 3132 3135 3137 3139 3141 3143 3145 3146 3148 3149 3150 3151 3151 3152 3154 3156 3157 3158 3159 3162 3164
3067 3067 3069 3071 3072 3073 3074 3075 3076 3078 3081 3084 3088 3092 3096 3097 3096 3095 3094 3094 3095 3096 3097 3099 3100 3101 3103 3103 3104 3106 3108 3110 3112 3112 3113 3115 3118 3120 3122 3124 3125 3126 3128 3130 3132 3134 3136 3138 3140 3142 3143 3144 3145 3146 3146 3147 3149 3151 3152 3152 3155 3157 3159
3061 3062 3064 3066 3067 3068 3070 3070 3071 3073 3075 3078 3081 3084 3089 3093 3094 3092 3091 3090 3090 3091 3092 3094 3096 3097 3098 3099 3100 3101 3103 3105 3106 3108 3109 3111 3113 3116 3118 3120 3122 3123 3124 3126 3128 3129 3131 3133 3135 3137 3138 3139 3140 3140 3141 3142 3143 3144 3145 3147 3149 3152 3153
3054 3056 3058 3059 3061 3063 3064 3065 3066 3067 3069 3072 3074 3077 3080 3084 3087 3088 3087 3086 3085 3086 3087 3089 3091 3092 3094 3095 3095 3096 3098 3100 3101 3103 3105 3107 3109 3111 3113 3115 3117 3119 3120 3121 3122 3124 3126 3128 3130 3131 3132 3133 3134 3135 3136 3137 3138 3139 3140 3142 3144 3146 3147